Южный

Россия / Новосибирская область     54°39′09″N   83°04′46″E
темп.,
°C
ветер,
м/с
пор.,
м/с
влажн.,
%
обл.,
%
осадки,
мм/ч
давл.,
гПа
погр.,
м
13 мая, чт
чт1301:00+11юв11554 0.0 101410
04:00+10ю22572 0.0 101310
07:00+9юз3360100 0.0 101426
10:00+10юз1156100 0.0 1013117
13:00+10зюз2354100 0.0 1013172
16:00+11зюз4661100 0.0 1013227
19:00+12сз5770100 0.0 1013172
22:00+10ссз338280 0.0 101528
14 мая, пт
пт1401:00+9ссз468578 0.0 101560
04:00+9ссз468558 0.0 101665
07:00+9ссз587980 0.0 1018158
10:00+10ссз5765100 0.0 1019207
13:00+12ссз5758100 0.0 1021395
16:00+13ссз573768 0.0 1021390
19:00+13ссз574057 0.0 1022363
22:00+11сз224925 0.0 102311
15 мая, сб
сб1501:00+9з225599 0.0 102412
04:00+8юз466267 0.0 102370
07:00+9юз61060100 0.0 1023159
10:00+10юз7115797 0.0 1023198
13:00+12юз7115556 0.0 1021242
16:00+15зюз7115798 0.0 1019340
19:00+14юз7116253 0.0 1018243
22:00+14ююз712605 0.0 1016115
16 мая, вс
вс1601:00+11зюз348493 2.6 101741
04:00+11ююз578292 0.8 101465
07:00+11ююз47861 2.1 101470
10:00+12юз2290100 1.2 101483
13:00+13зсз128196 1.2 1014264
16:00+15с3479100 2.6 1014239
19:00+16с57737 6.9 1014166
22:00+13св45885 0.2 101675
17 мая, пн
пн1701:00+11всв229312 0.2 101714
04:00+10сз119476 0.0 101710
07:00+11юз33937 0.0 101837
10:00+11юз4688100 0.0 1017146
13:00+14юз697530 0.0 1015287
16:00+18зюз610595 0.0 1013387
19:00+18зюз69569 0.0 1012164
22:00+15юз610675 0.0 101186